Weather History for Valparaiso, FL

Change the Weather History Date:

Wednesday, February 27, 2013

  Actual Average Record
Temperature  
Mean Temperature 52 °F -  
Max Temperature 61 °F 66 °F 56 °F (2014)
Min Temperature 44 °F 41 °F 35 °F (2014)
Degree Days  
Heating Degree Days 12    
Growing Degree Days 2 (Base 50)    
Moisture  
Dew Point 43 °F    
Average Humidity 70    
Maximum Humidity 91    
Minimum Humidity 45    
Precipitation  
Precipitation 0.00 in - - ()
Sea Level Pressure  
Sea Level Pressure 29.98 in    
Wind  
Wind Speed 4 mph (WSW)    
Max Wind Speed 13 mph    
Max Gust Speed 23 mph    
Visibility 10 miles    
Events      
Averages and records for this station are not official NWS values.
T = Trace of Precipitation, MM = Missing Value Source: NWS Daily Summary

Daily Weather History Graph

Daily Weather History Graph

Search for Another Location

Airport:

Trip Planner

Search our weather history database for the weather conditions in past years. The results will help you decide how hot, cold, wet, or windy it might be!

Date:

Astronomy

Feb. 27, 2013 Rise Set
Actual Time 6:14 AM CST 5:43 PM CST
Civil Twilight 5:50 AM CST 6:07 PM CST
Nautical Twilight 5:22 AM CST 6:35 PM CST
Astronomical Twilight 4:54 AM CST 7:03 PM CST
Moon 7:50 PM CST (2/27) 7:00 AM CST (2/27)
Length of Visible Light 12h 17m
Length of Day
11h 29m
Waning Gibbous, 96% of the Moon is Illuminated
Feb 27
Waning Gibbous
Mar 4
Last Quarter
Mar 11
New
Mar 19
First Quarter
Mar 27
Full

Hourly Weather History & Observations

Time (CST) Temp. Windchill Dew Point Humidity Pressure Visibility Wind Dir Wind Speed Gust Speed Precip Events Conditions
12:56 AM 50.5 °F - 43.7 °F 77% 29.94 in 10.0 mi NW 4.6 mph - N/A   Mostly Cloudy
1:56 AM 49.6 °F - 43.2 °F 78% 29.95 in 10.0 mi NW 2.3 mph - N/A   Mostly Cloudy
2:56 AM 47.5 °F - 43.5 °F 86% 29.95 in 10.0 mi Calm Calm - N/A   Mostly Cloudy
3:55 AM 47.5 °F - 43.7 °F 87% 29.96 in 10.0 mi SW 2.3 mph - N/A   Mostly Cloudy
4:55 AM 47.7 °F - 44.1 °F 87% 29.98 in 10.0 mi Calm Calm - N/A   Mostly Cloudy
5:55 AM 44.8 °F 42.4 °F 42.1 °F 90% 29.97 in 10.0 mi NNE 4.6 mph - N/A   Mostly Cloudy
6:55 AM 45.0 °F - 42.4 °F 91% 30.00 in 10.0 mi North 2.3 mph - N/A   Mostly Cloudy
7:55 AM 45.0 °F - 42.4 °F 91% 30.01 in 10.0 mi North 2.3 mph - N/A   Mostly Cloudy
8:55 AM 51.4 °F - 41.5 °F 69% 30.01 in 10.0 mi Calm Calm - N/A   Mostly Cloudy
9:56 AM 54.9 °F - 39.4 °F 56% 30.03 in 10.0 mi South 3.5 mph - N/A   Mostly Cloudy
10:56 AM 57.6 °F - 40.1 °F 52% 30.03 in 10.0 mi SSW 5.8 mph - N/A   Mostly Cloudy
11:55 AM 57.4 °F - 40.5 °F 53% 30.02 in 10.0 mi SSW 10.4 mph - N/A   Mostly Cloudy
12:55 PM 58.5 °F - 41.2 °F 53% 30.00 in 10.0 mi SW 10.4 mph - N/A   Mostly Cloudy
1:55 PM 61.0 °F - 40.8 °F 47% 29.98 in 10.0 mi SW 11.5 mph - N/A   Mostly Cloudy
2:58 PM 61.5 °F - 39.9 °F 45% 29.97 in 10.0 mi SSW 12.7 mph 23.0 mph N/A   Scattered Clouds
3:55 PM 61.2 °F - 39.9 °F 46% 29.96 in 10.0 mi SW 10.4 mph - N/A   Scattered Clouds
4:55 PM 59.7 °F - 40.3 °F 49% 29.96 in 10.0 mi SW 8.1 mph - N/A   Scattered Clouds
5:55 PM 57.2 °F - 42.4 °F 58% 29.98 in 10.0 mi SW 3.5 mph - N/A   Partly Cloudy
6:55 PM 55.8 °F - 44.1 °F 65% 29.98 in 10.0 mi WSW 3.5 mph - N/A   Clear
7:55 PM 55.2 °F - 45.5 °F 70% 29.99 in 10.0 mi WSW 4.6 mph - N/A   Clear
8:55 PM 53.1 °F - 45.7 °F 76% 29.99 in 10.0 mi West 2.3 mph - N/A   Clear
9:55 PM 53.4 °F - 46.8 °F 78% 29.99 in 10.0 mi West 4.6 mph - N/A   Clear
10:44 PM 53.6 °F - 46.4 °F 77% 29.98 in 10.0 mi West 3.5 mph - N/A   Clear
10:55 PM 48.4 °F - 44.4 °F 86% 30.00 in 10.0 mi West 3.5 mph - N/A   Clear
11:55 PM 48.7 °F - 44.6 °F 86% 29.98 in 10.0 mi West 3.5 mph - N/A   Partly Cloudy